Regional Weather Roundup
Issued by NWS

Home | Current Version | Previous Version | Text Only | Print | Product List | Glossary Off
Versions: 1 2 3 4 5 6 7 8 9 10 11 12 13 14 15 16 17 18 19 20 21 22 23 24 25 26 27 28 29 30 31 32 33 34 35 36 37 38 39 40 41 42 43 44 45 46 47 48 49 50

000
ASUS43 KLOT 232010
RWRIL

ILLINOIS REGIONAL WEATHER ROUNDUP
NATIONAL WEATHER SERVICE CHICAGO/ROMEOVILLE IL
300 PM CDT TUE SEP 23 2014

NOTE: "FAIR" INDICATES FEW OR NO CLOUDS BELOW 12,000 FEET WITH NO
SIGNIFICANT WEATHER AND/OR OBSTRUCTIONS TO VISIBILITY.

* THESE STATIONS ARE NOT UNDER NWS QUALITY CONTROL. THEY ALSO MAY NOT
  REPORT WEATHER SUCH AS PRECIPITATION OR FOG.

ILZ001-002-007-009-015-016-024-232100-
NORTHWEST ILLINOIS

CITY           SKY/WX    TMP DP  RH WIND       PRES   REMARKS
MOLINE         SUNNY     74  46  36 SW9       30.26F
STERLING*      SUNNY     73  48  40 S7        30.27F
SAVANNA*       SUNNY     74  45  36 SW6       30.26F
$$

ILZ003-004-008-010-011-017-018-232100-
NORTH CENTRAL ILLINOIS

CITY           SKY/WX    TMP DP  RH WIND       PRES   REMARKS
ROCKFORD       MOSUNNY   74  47  38 S7        30.30F
DE KALB*       SUNNY     70  48  45 S5        30.30F
PERU*          SUNNY     74  46  36 E3        30.29F
$$

ILZ005-006-012>014-019>023-232100-
NORTHEAST ILLINOIS

CITY           SKY/WX    TMP DP  RH WIND       PRES   REMARKS
CHICAGO-OHARE  MOSUNNY   71  46  40 CALM      30.30F
CHICAGO-MIDWAY MOSUNNY   74  49  41 SW6       30.30F
AURORA         SUNNY     74  47  38 CALM      30.30F
LANSING*       SUNNY     71  48  43 S5        30.31F
JOLIET*        SUNNY     71  46  39 CALM      30.30F
WAUKEGAN       SUNNY     69  51  52 SE10      30.29F
DUPAGE AIRPORT SUNNY     74  48  39 S6        30.29F
KANKAKEE*      SUNNY     72  49  44 E3        30.31F
WHEELING       SUNNY     74  47  38 W5        30.31F
ROMEOVILLE*    SUNNY     72  46  39 CALM      30.30F
NORTHERLY ISL    N/A     66  56  70 E9          N/A
$$

LMZ740>746-232100-
SOUTHERN LAKE MICHIGAN

STATION/POSITION SKY/WX   TEMP    WIND        PRES    VSBY  WAVE
                          AIR SEA DIR/SP/G                  HT/PER
                          (F)     (DEG/KT/KT) (MB)    (MI)  (FT/S)
SOUTHERN BUOY              62 61  190/  8/ 10 1026.9F         1/ 3
WAUKEGAN HARBOR            65     140/ 12/ 14   N/A
BURNHAM HARBOR             66      90/  8/  9   N/A
CALUMET HARBOR             67      70/  8/ 10 1025.1F
MICHIGAN CITY 6N           64 65  360/  6/  6   N/A           1
ST. JOSEPH                 63 65  310/  6/  8   N/A           1/ 3
$$

ILZ025>027-034>036-040-047-049-050-058-095>099-232100-
WEST-CENTRAL ILLINOIS

CITY           SKY/WX    TMP DP  RH WIND       PRES   REMARKS
QUINCY         PTSUNNY   72  47  40 SE8       30.25F
GALESBURG*     SUNNY    N/A N/A N/A SE5       30.27F
MACOMB*        SUNNY     75  43  31 S7        30.28F
JACKSONVILLE*  SUNNY     77  46  32 SE5       30.27F
PITTSFIELD*    PTSUNNY   75  45  34 S3        30.27F
$$

ILZ028>032-037-038-041>044-048-051>054-059>061-232100-
CENTRAL ILLINOIS

CITY           SKY/WX    TMP DP  RH WIND       PRES   REMARKS
PONTIAC          N/A     75  45  33 S7        30.29F
BLOOMINGTON    SUNNY     74  47  38 VRB5      30.30F
DECATUR        SUNNY     74  46  36 E9        30.29F
PEORIA         SUNNY     75  45  34 SE6       30.28F
LACON*         SUNNY     73  49  41 S7        30.27F
LINCOLN*       SUNNY     76  45  33 CALM      30.25F
SPRINGFIELD    SUNNY     75  49  39 CALM      30.28F
TAYLORVILLE    SUNNY     72  46  40 CALM      30.28F
$$

ILZ033-039-045-046-055>057-062-063-232100-
EAST-CENTRAL ILLINOIS

CITY           SKY/WX    TMP DP  RH WIND       PRES   REMARKS
CHAMPAIGN      SUNNY     74  45  35 VRB3      30.29F
DANVILLE*      SUNNY     73  46  39 NE3       30.27F HAZE
RANTOUL*       SUNNY     76  40  27 E3        30.30F
MATTOON        SUNNY     72  48  42 E7        30.28F
PARIS*         SUNNY     73  48  41 E5        30.30F
$$

ILZ079-100>102-232100-
SOUTHWEST ILLINOIS

CITY           SKY/WX    TMP DP  RH WIND       PRES   REMARKS
BELLEVILLE     SUNNY     75  48  38 E6        30.26F
CAHOKIA*       SUNNY     76  47  35 E5        30.26F
SPARTA*        SUNNY     74  47  38 E7        30.27F
$$

ILZ064>066-069>071-074>076-080>082-084>086-088>090-092>094-232100-
SOUTH-CENTRAL ILLINOIS

CITY           SKY/WX    TMP DP  RH WIND       PRES   REMARKS
CARBONDALE     SUNNY     74  46  36 E7        30.25F
CAIRO*         SUNNY     76  47  35 N7        30.24F
EFFINGHAM*     SUNNY     75  41  30 E6        30.28F
MARION         MOSUNNY   75  46  35 NE8       30.27F
MT. VERNON     SUNNY     73  46  38 NE7       30.28F
CENTRALIA*     SUNNY     73  45  36 E7        30.28F
SALEM*         SUNNY     74  49  40 E5        30.28F
METROPOLIS*    SUNNY     76  47  36 N7        30.24F
$$

ILZ067-068-072-073-078-083-087-091-232100-
SOUTHEAST ILLINOIS

CITY           SKY/WX    TMP DP  RH WIND       PRES   REMARKS
LAWRENCEVILLE  SUNNY     74  47  38 VRB7      30.29F
FLORA*         SUNNY     73  44  36 E8        30.28F HAZE
FAIRFIELD*     SUNNY    N/A N/A N/A N7        30.27F
HARRISBURG*    SUNNY     74  44  33 SE3       30.27F
ROBINSON*      SUNNY     74  49  41 NE9       30.30F
CARMI*         SUNNY     77  47  35 NE7       30.27F
$$

ABBREVIATIONS USED IN REMARKS
   TC - TEMPERATURE IN CELSIUS
  WCI - WIND CHILL INDEX
   HX - HEAT INDEX
  VSB - VISIBILITY
$$




USA.gov is the U.S. government's official web portal to all federal, state and local government web resources and services.